Year,Month,Day,Hour,Minute,Value (Times are PST for temperature in C)
2013,01,31,11,27,5.70
2013,01,31,11,28,5.70
2013,01,31,11,29,5.70
2013,01,31,11,30,5.70
2013,01,31,11,31,5.70
2013,01,31,11,32,5.70
2013,01,31,11,33,5.70
2013,01,31,11,34,5.80
2013,01,31,11,35,5.80
2013,01,31,11,36,5.80
2013,01,31,11,37,5.90
2013,01,31,11,38,5.90
2013,01,31,11,39,5.90
2013,01,31,11,40,5.90
2013,01,31,11,41,5.90
2013,01,31,11,42,5.90
2013,01,31,11,43,5.90
2013,01,31,11,44,5.90
2013,01,31,11,45,5.90
2013,01,31,11,46,5.90
2013,01,31,11,47,5.90
2013,01,31,11,48,5.90
2013,01,31,11,49,5.90
2013,01,31,12,23,6.70
2013,01,31,12,24,6.70
2013,01,31,12,25,6.80
2013,01,31,12,26,6.90
2013,01,31,12,27,7.00
2013,01,31,12,28,7.00
2013,01,31,12,29,7.00
2013,01,31,12,30,7.00
2013,01,31,12,31,7.10
2013,01,31,12,32,7.20
2013,01,31,12,33,7.20
2013,01,31,12,34,7.20
2013,01,31,12,35,7.30
2013,01,31,12,36,7.30
2013,01,31,12,37,7.30
2013,01,31,12,38,7.30
2013,01,31,12,39,7.30
2013,01,31,12,40,7.30
2013,01,31,12,41,7.30
2013,01,31,12,42,7.30
2013,01,31,12,43,7.30
2013,01,31,12,44,7.30
2013,01,31,12,45,7.30
2013,01,31,12,46,7.30
2013,01,31,12,47,7.30
2013,01,31,12,48,7.40
2013,01,31,12,49,7.50
2013,01,31,12,50,7.50
2013,01,31,12,51,7.50
2013,01,31,12,52,7.60
2013,01,31,12,53,7.60
2013,01,31,12,54,7.60
2013,01,31,12,55,7.60
2013,01,31,12,56,7.60
2013,01,31,12,57,7.70
2013,01,31,12,58,7.70
2013,01,31,12,59,7.80
2013,01,31,13,00,7.80
2013,01,31,13,01,7.80
2013,01,31,13,02,7.80
2013,01,31,13,03,7.80
2013,01,31,13,04,7.80
2013,01,31,13,05,7.90
2013,01,31,13,06,7.90
2013,01,31,13,07,8.00
2013,01,31,13,08,8.10
2013,01,31,13,09,8.10
2013,01,31,13,10,8.00
2013,01,31,13,11,8.00
2013,01,31,13,12,8.00
2013,01,31,13,13,8.00
2013,01,31,13,14,8.00
2013,01,31,13,15,8.10
2013,01,31,13,16,8.10
2013,01,31,13,17,8.20
2013,01,31,13,18,8.30
2013,01,31,13,19,8.50
2013,01,31,13,20,8.50
2013,01,31,13,21,8.50
2013,01,31,13,22,8.50
2013,01,31,13,23,8.60
2013,01,31,13,24,8.60
2013,01,31,13,25,8.60
2013,01,31,13,26,8.50
2013,01,31,13,27,8.50
2013,01,31,13,28,8.50
2013,01,31,13,29,8.50
2013,01,31,13,30,8.50
2013,01,31,13,31,8.50
2013,01,31,13,32,8.50
2013,01,31,13,33,8.50
2013,01,31,13,34,8.40
2013,01,31,13,35,8.30
2013,01,31,13,36,8.20
2013,01,31,13,37,8.10
2013,01,31,13,38,8.00
2013,01,31,13,39,7.90
2013,01,31,13,40,7.90
2013,01,31,13,41,7.90
2013,01,31,13,42,7.80
2013,01,31,13,43,7.80
2013,01,31,13,44,7.80
2013,01,31,13,45,7.80
2013,01,31,13,46,7.80
2013,01,31,13,47,7.80
2013,01,31,13,48,7.80
2013,01,31,13,49,7.70
2013,01,31,13,50,7.70
2013,01,31,13,51,7.70
2013,01,31,13,52,7.70
2013,01,31,13,53,7.70
2013,01,31,13,54,7.70
2013,01,31,13,55,7.70
2013,01,31,13,56,7.60
2013,01,31,13,57,7.40
2013,01,31,13,58,7.40
2013,01,31,13,59,7.40
2013,01,31,14,00,7.40
2013,01,31,14,01,7.40
2013,01,31,14,02,7.40
2013,01,31,14,03,7.40
2013,01,31,14,04,7.50
2013,01,31,14,05,7.50
2013,01,31,14,06,7.50
2013,01,31,14,07,7.50
2013,01,31,14,08,7.50
2013,01,31,14,09,7.50
2013,01,31,14,10,7.40
2013,01,31,14,11,7.40
2013,01,31,14,12,7.40
2013,01,31,14,13,7.40
2013,01,31,14,14,7.40
2013,01,31,14,15,7.40
2013,01,31,14,16,7.40
2013,01,31,14,17,7.40
2013,01,31,14,18,7.40
2013,01,31,14,19,7.40
2013,01,31,14,20,7.40
2013,01,31,14,21,7.40
2013,01,31,14,22,7.40
2013,01,31,14,23,7.50
2013,01,31,14,24,7.50
2013,01,31,14,25,7.50
2013,01,31,14,26,7.40
2013,01,31,14,27,7.40
2013,01,31,14,28,7.40
2013,01,31,14,29,7.30
2013,01,31,14,30,7.30
2013,01,31,14,31,7.20
2013,01,31,14,32,7.20
2013,01,31,14,33,7.10
2013,01,31,14,34,7.10
2013,01,31,14,35,7.10
2013,01,31,14,36,7.00
2013,01,31,14,37,7.10
2013,01,31,14,38,7.10
2013,01,31,14,39,7.10
2013,01,31,14,40,7.10
2013,01,31,14,41,7.10
2013,01,31,14,42,7.10
2013,01,31,14,43,7.10
2013,01,31,14,44,7.10
2013,01,31,14,45,7.10
2013,01,31,14,46,7.10
2013,01,31,14,47,7.10
2013,01,31,14,48,7.10
